Denver, CO

4:25 AM MDT on June 25, 2017 (GMT -0600)
Denver International

Weather History for KDEN - October, 2013

Change the Weather History Date:

Saturday, October 5, 2013

  Actual Average Record
Temperature  
Mean Temperature 44 °F 55 °F  
Max Temperature 60 °F 70 °F 86 °F (1990)
Min Temperature 27 °F 41 °F 20 °F (1969)
Degree Days  
Heating Degree Days 21 10  
Month to date heating degree days 70 47  
Since 1 July heating degree days 153 188  
Cooling Degree Days 0 0  
Month to date cooling degree days 0 1  
Year to date cooling degree days 999 765  
Moisture  
Dew Point 22 °F    
Average Humidity 48    
Maximum Humidity 78    
Minimum Humidity 18    
Precipitation  
Precipitation 0.00 in 0.03 in 1.24 in (1951)
Month to date precipitation 0.25 0.19  
Year to date precipitation 16.61 12.51  
Snow  
Snow 0.00 in - - ()
Month to date snowfall T  
Since 1 July snowfall T  
Since 1 September snowfall T  
Snow Depth 0.00 in    
Sea Level Pressure  
Sea Level Pressure 30.15 in    
Wind  
Wind Speed 9 mph (WSW)    
Max Wind Speed 24 mph    
Max Gust Speed 30 mph    
Visibility 10 miles    
Events      
T = Trace of Precipitation, MM = Missing Value Source: NWS Daily Summary

Daily Weather History Graph

Daily Weather History Graph

Search for Another Location

Airport or City:

Trip Planner

Search our weather history database for the weather conditions in past years. The results will help you decide how hot, cold, wet, or windy it might be!

Date:

Astronomy

Oct. 05, 2013 Rise Set
Actual Time 6:59 AM MDT 6:34 PM MDT
Civil Twilight 6:32 AM MDT 7:01 PM MDT
Nautical Twilight 6:00 AM MDT 7:32 PM MDT
Astronomical Twilight 5:29 AM MDT 8:03 PM MDT
Moon 7:41 AM MDT (10/5) 6:54 PM MDT (10/5)
Length of Visible Light 12h 28m
Length of Day
11h 34m
New Moon, 1% of the Moon is Illuminated
Oct 5
New Moon
Oct 11
First Quarter
Oct 18
Full
Oct 26
Last Quarter
Nov 3
New

Hourly Weather History & Observations

Time (MDT) Temp. Windchill Dew Point Humidity Pressure Visibility Wind Dir Wind Speed Gust Speed Precip Events Conditions
12:53 AM 28.0 °F 22.8 °F 21.9 °F 78% 30.19 in 10.0 mi SSE 4.6 mph - N/A   Clear
1:53 AM 28.9 °F 25.2 °F 21.9 °F 75% 30.21 in 10.0 mi SSE 3.5 mph - N/A   Partly Cloudy
2:53 AM 28.9 °F 23.9 °F 23.0 °F 78% 30.19 in 10.0 mi SW 4.6 mph - N/A   Scattered Clouds
3:53 AM 28.0 °F 24.2 °F 23.0 °F 81% 30.19 in 10.0 mi South 3.5 mph - N/A   Mostly Cloudy
4:53 AM 30.9 °F 24.3 °F 23.0 °F 72% 30.19 in 10.0 mi SW 6.9 mph - N/A   Scattered Clouds
5:53 AM 30.9 °F 21.7 °F 23.0 °F 72% 30.18 in 10.0 mi SW 11.5 mph - N/A   Mostly Cloudy
6:53 AM 30.9 °F 21.7 °F 25.0 °F 79% 30.21 in 10.0 mi SSW 11.5 mph - N/A   Mostly Cloudy
7:53 AM 33.1 °F 22.6 °F 26.1 °F 75% 30.21 in 10.0 mi SSW 16.1 mph - N/A   Mostly Cloudy
8:53 AM 39.0 °F 31.0 °F 26.1 °F 60% 30.17 in 10.0 mi SSW 13.8 mph - N/A   Mostly Cloudy
9:53 AM 43.0 °F 37.2 °F 26.1 °F 51% 30.17 in 10.0 mi SW 10.4 mph - N/A   Mostly Cloudy
10:53 AM 50.0 °F - 24.1 °F 36% 30.14 in 10.0 mi West 11.5 mph - N/A   Mostly Cloudy
11:53 AM 52.0 °F - 21.0 °F 30% 30.15 in 10.0 mi WNW 9.2 mph - N/A   Scattered Clouds
12:53 PM 54.0 °F - 21.9 °F 29% 30.14 in 10.0 mi NW 13.8 mph 19.6 mph N/A   Scattered Clouds
1:53 PM 55.9 °F - 21.0 °F 26% 30.10 in 10.0 mi WNW 16.1 mph 20.7 mph N/A   Partly Cloudy
2:53 PM 57.0 °F - 19.9 °F 24% 30.10 in 10.0 mi West 8.1 mph 18.4 mph N/A   Scattered Clouds
3:53 PM 59.0 °F - 16.0 °F 19% 30.07 in 10.0 mi North 16.1 mph 25.3 mph N/A   Scattered Clouds
4:53 PM 57.9 °F - 15.1 °F 19% 30.08 in 10.0 mi North 17.3 mph - N/A   Scattered Clouds
5:53 PM 55.0 °F - 19.0 °F 24% 30.10 in 10.0 mi NNW 10.4 mph - N/A   Scattered Clouds
6:53 PM 52.0 °F - 15.1 °F 23% 30.12 in 10.0 mi NNW 3.5 mph - N/A   Partly Cloudy
7:53 PM 48.0 °F - 21.0 °F 34% 30.14 in 10.0 mi West 3.5 mph - N/A   Partly Cloudy
8:53 PM 45.0 °F 41.2 °F 23.0 °F 42% 30.14 in 10.0 mi WSW 6.9 mph - N/A   Clear
9:53 PM 41.0 °F - 24.1 °F 51% 30.16 in 10.0 mi Calm Calm - N/A   Clear
10:53 PM 37.0 °F 33.3 °F 25.0 °F 62% 30.16 in 10.0 mi SW 4.6 mph - N/A   Clear
11:53 PM 39.0 °F 32.8 °F 24.1 °F 55% 30.14 in 10.0 mi SW 9.2 mph - N/A   Clear